This demonstration page uses our WeatherBlox Daily Observations layout. Learn more.

Left ArrowRight Arrow

Hourly Observations for January 17, 2019

Temp ( °F °C ) Dew Point ( °F °C ) Humidity (%) Winds ( mph kmh ) Pressure ( in mb ) Visibility ( mi km ) Precip ( " mm )
12:53 am 00:53 Clear 33 0.6 32 0 96 96 Calm 30.26 1025 10 16 0.00 0.00
1:53 am 01:53 Clear 33 0.6 32 0 96 96 Calm 30.25 1024 8 13 0.00 0.00
2:53 am 02:53 Clear 32 0 32 0 100 100 Calm 30.26 1025 9 14 0.00 0.00
3:53 am 03:53 Clear 32 0 32 0 100 100 Calm 30.25 1024 7 11 0.00 0.00
4:53 am 04:53 Clear with Mist and Fog 32 0 32 0 100 100 Calm 30.23 1024 5 8 0.00 0.00
5:53 am 05:53 Clear with Mist and Fog 32 0 32 0 100 100 Calm 30.23 1024 6 10 0.00 0.00
6:15 am 06:15 Clear with Mist and Fog 31 -0.6 31 -0.6 100 100 Calm 30.24 1024 2 3 0.00 0.00
6:53 am 06:53 Clear 31 -0.6 31 -0.6 100 100 Calm 30.24 1024 8 13 0.00 0.00
7:53 am 07:53 Sunny 32 0 32 0 100 100 Calm 30.24 1024 8 13 0.00 0.00
8:53 am 08:53 Sunny 33 0.6 32 0 96 96 NNW 3 6 30.20 1023 7 11 0.00 0.00
9:53 am 09:53 Mostly Sunny 37 2.8 36 2.2 96 96 Calm 30.26 1025 8 13 0.00 0.00
10:53 am 10:53 Cloudy 43 6.1 38 3.3 82 82 WNW 5 7 30.26 1025 10 16 0.00 0.00
11:53 am 11:53 Cloudy with Light Rain 46 7.8 38 3.3 73 73 VRB 3 6 30.25 1024 9 14 0.00 0.03
12:12 pm 12:12 Cloudy with Light Rain 45 7.2 39 3.9 80 80 Calm 30.24 1024 6 10 0.00 0.03
12:50 pm 12:50 Cloudy with Light Rain 45 7 43 6 93 93 Calm 30.21 1023 5 8 0.04 1.02
12:53 pm 12:53 Cloudy with Rain 45 7.2 42 5.6 90 90 NNW 3 6 30.21 1023 4 6 0.04 1.02
1:53 pm 13:53 Cloudy with Light Rain 46 7.8 42 5.6 86 86 W 5 7 30.20 1023 9 14 0.01 0.25
2:53 pm 14:53 Cloudy with Light Rain 45 7.2 44 6.7 97 97 WSW 6 9 30.17 1022 5 8 0.01 0.25
3:48 pm 15:48 Cloudy 45 7 45 7 100 100 Calm 30.18 1022 9 14 0.00 0.03
3:53 pm 15:53 Cloudy with Mist and Fog 46 7.8 44 6.7 93 93 Calm 30.17 1022 6 10 0.00 0.03
3:55 pm 15:55 Cloudy 46 7.8 44 6.7 93 93 Calm 30.18 1022 7 11 0.00 0.00
4:02 pm 16:02 Cloudy with Light Rain 46 7.8 44 6.7 93 93 E 3 6 30.18 1022 6 10 0.00 0.03
4:35 pm 16:35 Cloudy with Light Rain 45 7.2 45 7.2 100 100 NNE 5 7 30.21 1023 2 3 0.01 0.25
4:46 pm 16:46 Cloudy with Light Rain 45 7.2 45 7.2 100 100 NNE 3 6 30.21 1023 2 2 0.03 0.76
4:53 pm 16:53 Cloudy with Light Rain 45 7.2 45 7.2 100 100 ENE 3 6 30.19 1022 2 3 0.03 0.76
5:16 pm 17:16 Cloudy with Nearby Thunderstorms 45 7.2 45 7.2 100 100 SE 6 9 30.18 1022 3 4 0.03 0.76
5:19 pm 17:19 Cloudy with Nearby Thunderstorms 45 7.2 45 7.2 100 100 SE 5 7 30.18 1022 4 6 0.03 0.76
5:30 pm 17:30 Cloudy 45 7.2 45 7.2 100 100 SSE 6 9 30.18 1022 8 13 0.03 0.76
5:53 pm 17:53 Cloudy with Light Rain 45 7.2 45 7.2 100 100 S 5 7 30.16 1021 9 14 0.03 0.76
6:21 pm 18:21 Cloudy with Light Rain 45 7.2 45 7.2 100 100 Calm 30.18 1022 9 14 0.01 0.25
6:28 pm 18:28 Cloudy 45 7.2 45 7.2 100 100 Calm 30.18 1022 9 14 0.01 0.25
6:53 pm 18:53 Cloudy with Mist and Fog 45 7.2 45 7.2 100 100 Calm 30.16 1021 6 10 0.01 0.25
7:21 pm 19:21 Cloudy 46 7.8 46 7.8 100 100 Calm 30.18 1022 7 11 0.00 0.00
7:53 pm 19:53 Cloudy with Mist and Fog 45 7.2 45 7.2 100 100 SSW 5 7 30.16 1022 5 8 0.00 0.00
8:32 pm 20:32 Cloudy 46 7.8 45 7.2 96 96 Calm 30.18 1022 7 11 0.00 0.00
8:41 pm 20:41 Cloudy 46 7.8 45 7.2 96 96 Calm 30.18 1022 7 11 0.00 0.00
8:53 pm 20:53 Cloudy 46 7.8 45 7.2 96 96 Calm 30.16 1021 7 11 0.00 0.00
9:53 pm 21:53 Cloudy 46 7.8 46 7.8 100 100 Calm 30.15 1021 8 13 0.00 0.00
10:53 pm 22:53 Cloudy 46 7.8 46 7.8 100 100 SW 3 6 30.15 1021 7 11 0.00 0.00
11:29 pm 23:29 Cloudy with Mist and Fog 46 7.8 46 7.8 100 100 Calm 30.18 1022 4 6 0.00 0.00
11:53 pm 23:53 Cloudy with Mist and Fog 46 7.8 46 7.8 100 100 WSW 3 6 30.15 1021 3 5 0.00 0.00

Powered by AerisWeather